Date String (YYYY-MM-DD hh:mm:ss) UTC,Instrument flags,absolute air pressure of the measurement (hPa),sample flow rate (lpm),inlet stack bypass flow (lpm),air temperature of the measurement (°C),ambient temperature measured by the external sensor (°C),aerosol sample conditioner tube jacket temperature (°C),OPC LED temperature (°C),internal box temperature (°C),relative humidity of the measurement (%),span deviation,mass concentration of particles derived from Lorenz-Mie calculation of OPC scattering (μg/m³),mass concentration of particles derived from Lorenz-Mie calculation of OPC scattering (μg/m³),mass concentration of particles derived from Lorenz-Mie calculation of OPC scattering (μg/m³)
DateTimeUTC,F1_M11,P_M11,Q1_M11,Q2_M11,T1_M11,T2_M11,T3_M11,T4_M11,T5_M11,U1_M11,ZSPAN_M11,X2_M11,X0_M11,X1_M11
2024-05-26 00:00:00,SystemResetWarning,0819.5,5.00,000.00,031.2,030.4,000.0,039.4,032.8,016.2,0000.0,0003.10,0011.83,0001.35
2024-05-26 00:01:00,SystemResetWarning,0819.3,5.00,000.00,031.2,030.4,000.0,039.4,032.8,016.3,0000.0,0003.17,0012.16,0001.38
2024-05-26 00:02:00,SystemResetWarning,0819.4,5.00,000.00,031.2,030.4,000.0,039.4,032.9,016.3,0000.0,0003.25,0012.93,0001.43
2024-05-26 00:03:00,SystemResetWarning,0819.3,4.99,000.00,031.2,030.4,000.0,039.5,032.9,016.4,0000.0,0003.34,0013.52,0001.46
2024-05-26 00:04:00,SystemResetWarning,0819.4,4.99,000.00,031.2,030.5,000.0,039.5,032.9,016.6,0000.0,0003.36,0013.22,0001.49
2024-05-26 00:05:00,SystemResetWarning,0819.4,5.00,000.00,031.2,030.5,000.0,039.5,032.9,016.9,0000.0,0003.39,0013.81,0001.51
2024-05-26 00:06:00,SystemResetWarning,0819.4,5.00,000.00,031.2,030.5,000.0,039.5,032.9,017.1,0000.0,0003.37,0014.45,0001.54
2024-05-26 00:07:00,SystemResetWarning,0819.3,5.00,000.00,031.3,030.5,000.0,039.5,032.9,017.2,0000.0,0003.39,0014.47,0001.56
2024-05-26 00:08:00,SystemResetWarning,0819.4,5.00,000.00,031.3,030.5,000.0,039.5,032.9,017.4,0000.0,0003.38,0013.69,0001.59
2024-05-26 00:09:00,SystemResetWarning,0819.4,5.02,000.00,031.3,030.5,000.0,039.5,032.9,017.6,0000.0,0003.35,0013.99,0001.60
2024-05-26 00:10:00,SystemResetWarning,0819.4,5.00,000.00,031.3,030.5,000.0,039.5,032.9,017.7,0000.0,0003.33,0013.64,0001.63
2024-05-26 00:11:00,SystemResetWarning,0819.4,4.99,000.00,031.3,030.5,000.0,039.6,033.0,017.8,0000.0,0003.37,0013.54,0001.66
2024-05-26 00:12:00,SystemResetWarning,0819.4,5.00,000.00,031.3,030.6,000.0,039.6,033.0,017.7,0000.0,0003.39,0013.05,0001.68
2024-05-26 00:13:00,SystemResetWarning,0819.5,5.02,000.00,031.3,030.6,000.0,039.6,033.0,017.3,0000.0,0003.40,0013.19,0001.69
2024-05-26 00:14:00,SystemResetWarning,0819.5,5.00,000.00,031.3,030.6,000.0,039.6,033.0,017.2,0000.0,0003.37,0013.18,0001.68
2024-05-26 00:15:00,SystemResetWarning,0819.5,4.99,000.00,031.3,030.6,000.0,039.6,033.0,017.4,0000.0,0003.40,0013.22,0001.70
2024-05-26 00:16:00,SystemResetWarning,0819.6,4.99,000.00,031.3,030.6,000.0,039.6,033.0,017.5,0000.0,0003.43,0012.66,0001.72
2024-05-26 00:17:00,SystemResetWarning,0819.6,5.01,000.00,031.4,030.6,000.0,039.6,033.0,017.6,0000.0,0003.46,0011.66,0001.72
2024-05-26 00:18:00,SystemResetWarning,0819.6,5.00,000.00,031.4,030.6,000.0,039.6,033.0,017.6,0000.0,0003.49,0011.68,0001.72
2024-05-26 00:19:00,SystemResetWarning,0819.8,5.00,000.00,031.4,030.6,000.0,039.6,033.0,017.6,0000.0,0003.53,0012.40,0001.73
2024-05-26 00:20:00,SystemResetWarning,0819.7,5.01,000.00,031.4,030.6,000.0,039.7,033.0,017.7,0000.0,0003.57,0012.14,0001.75
2024-05-26 00:21:00,SystemResetWarning,0819.6,5.01,000.00,031.4,030.6,000.0,039.7,033.0,017.8,0000.0,0003.56,0011.83,0001.74
2024-05-26 00:22:00,SystemResetWarning,0819.5,5.00,000.00,031.4,030.6,000.0,039.7,033.0,017.7,0000.0,0003.52,0011.55,0001.73
2024-05-26 00:23:00,SystemResetWarning,0819.7,4.99,000.00,031.4,030.6,000.0,039.7,033.0,017.2,0000.0,0003.52,0012.32,0001.74
2024-05-26 00:24:00,SystemResetWarning,0819.8,4.99,000.00,031.4,030.6,000.0,039.7,033.1,017.0,0000.0,0003.55,0012.05,0001.76
2024-05-26 00:25:00,SystemResetWarning,0819.8,5.00,000.00,031.4,030.6,000.0,039.7,033.1,016.7,0000.0,0003.58,0011.20,0001.78
2024-05-26 00:26:00,SystemResetWarning,0819.9,5.01,000.00,031.4,030.6,000.0,039.7,033.0,016.8,0000.0,0003.58,0010.94,0001.76
2024-05-26 00:27:00,SystemResetWarning,0820.1,5.01,000.00,031.4,030.6,000.0,039.7,033.0,016.8,0000.0,0003.54,0010.68,0001.75
2024-05-26 00:28:00,SystemResetWarning,0820.0,4.98,000.00,031.4,030.7,000.0,039.7,033.1,017.0,0000.0,0003.52,0010.56,0001.73
2024-05-26 00:29:00,SystemResetWarning,0819.9,5.01,000.00,031.4,030.7,000.0,039.7,033.1,016.6,0000.0,0003.48,0010.09,0001.72
2024-05-26 00:30:00,SystemResetWarning,0819.7,5.01,000.00,031.4,030.7,000.0,039.7,033.1,016.2,0000.0,0003.42,0009.58,0001.69
2024-05-26 00:31:00,SystemResetWarning,0819.7,5.00,000.00,031.4,030.7,000.0,039.8,033.1,016.2,0000.0,0003.37,0009.68,0001.65
2024-05-26 00:32:00,SystemResetWarning,0820.0,4.99,000.00,031.4,030.7,000.0,039.8,033.1,016.2,0000.0,0003.34,0009.65,0001.61
2024-05-26 00:33:00,SystemResetWarning,0820.0,4.99,000.00,031.4,030.7,000.0,039.8,033.1,016.3,0000.0,0003.33,0010.38,0001.59
2024-05-26 00:34:00,SystemResetWarning,0819.9,5.01,000.00,031.4,030.7,000.0,039.8,033.1,016.2,0000.0,0003.26,0009.88,0001.55
2024-05-26 00:35:00,SystemResetWarning,0819.9,5.01,000.00,031.4,030.7,000.0,039.8,033.1,016.4,0000.0,0003.17,0009.18,0001.51
2024-05-26 00:36:00,SystemResetWarning,0820.3,5.00,000.00,031.4,030.7,000.0,039.8,033.1,016.5,0000.0,0003.13,0009.95,0001.49
2024-05-26 00:37:00,SystemResetWarning,0820.0,5.00,000.00,031.5,030.7,000.0,039.8,033.1,016.2,0000.0,0003.05,0009.85,0001.48
2024-05-26 00:38:00,SystemResetWarning,0820.0,5.00,000.00,031.5,030.7,000.0,039.8,033.1,015.9,0000.0,0003.01,0010.71,0001.47
2024-05-26 00:39:00,SystemResetWarning,0820.1,4.99,000.00,031.5,030.7,000.0,039.8,033.1,016.0,0000.0,0002.95,0010.72,0001.44
2024-05-26 00:40:00,SystemResetWarning,0820.1,5.00,000.00,031.5,030.7,000.0,039.8,033.1,015.7,0000.0,0002.90,0010.67,0001.42
2024-05-26 00:41:00,SystemResetWarning,0820.1,5.00,000.00,031.5,030.7,000.0,039.8,033.1,015.9,0000.0,0002.98,0010.59,0001.42
2024-05-26 00:42:00,SystemResetWarning,0820.1,5.00,000.00,031.5,030.7,000.0,039.8,033.1,015.6,0000.0,0002.98,0010.31,0001.39
2024-05-26 00:43:00,SystemResetWarning,0820.0,5.00,000.00,031.5,030.7,000.0,039.8,033.1,015.5,0000.0,0002.92,0010.09,0001.36
2024-05-26 00:44:00,SystemResetWarning,0820.1,4.99,000.00,031.5,030.7,000.0,039.8,033.1,015.5,0000.0,0002.83,0009.55,0001.34
2024-05-26 00:45:00,SystemResetWarning,0820.1,5.01,000.00,031.5,030.7,000.0,039.8,033.1,015.5,0000.0,0002.76,0008.88,0001.31
2024-05-26 00:46:00,SystemResetWarning,0820.1,5.01,000.00,031.5,030.7,000.0,039.8,033.1,015.7,0000.0,0002.75,0009.58,0001.28
2024-05-26 00:47:00,SystemResetWarning,0820.1,5.00,000.00,031.5,030.7,000.0,039.8,033.1,015.7,0000.0,0002.72,0009.71,0001.26
2024-05-26 00:48:00,SystemResetWarning,0820.1,4.99,000.00,031.5,030.7,000.0,039.9,033.1,015.7,0000.0,0002.69,0009.48,0001.23
2024-05-26 00:49:00,SystemResetWarning,0820.1,5.00,000.00,031.5,030.7,000.0,039.9,033.1,015.7,0000.0,0002.69,0008.51,0001.19
2024-05-26 00:50:00,SystemResetWarning,0820.1,5.01,000.00,031.5,030.7,000.0,039.9,033.1,015.6,0000.0,0002.68,0008.89,0001.17
2024-05-26 00:51:00,SystemResetWarning,0820.1,5.01,000.00,031.5,030.7,000.0,039.9,033.1,015.6,0000.0,0002.63,0009.16,0001.17
2024-05-26 00:52:00,SystemResetWarning,0820.1,5.01,000.00,031.5,030.7,000.0,039.9,033.1,015.6,0000.0,0002.49,0009.39,0001.16
2024-05-26 00:53:00,SystemResetWarning,0820.2,4.99,000.00,031.5,030.7,000.0,039.9,033.1,015.7,0000.0,0002.41,0009.44,0001.15
2024-05-26 00:54:00,SystemResetWarning,0820.3,4.99,000.00,031.5,030.7,000.0,039.9,033.1,015.7,0000.0,0002.39,0009.83,0001.14
2024-05-26 00:55:00,SystemResetWarning,0820.3,4.99,000.00,031.5,030.7,000.0,039.9,033.1,015.7,0000.0,0002.40,0009.75,0001.14
2024-05-26 00:56:00,SystemResetWarning,0820.3,5.00,000.00,031.5,030.7,000.0,039.9,033.1,015.8,0000.0,0002.35,0009.84,0001.13
2024-05-26 00:57:00,SystemResetWarning,0820.4,5.00,000.00,031.5,030.7,000.0,039.9,033.1,015.9,0000.0,0002.28,0009.70,0001.12
2024-05-26 00:58:00,SystemResetWarning,0820.6,5.01,000.00,031.5,030.7,000.0,039.9,033.1,016.0,0000.0,0002.25,0008.99,0001.11
2024-05-26 00:59:00,SystemResetWarning,0820.8,5.00,000.00,031.5,030.7,000.0,039.9,033.1,016.1,0000.0,0002.24,0009.02,0001.12
